Miscellaneous Local Product
Issued by NWS Hastings, NE

Home | Current Version | Previous Version | Graphics & Text | Print | Product List | Glossary On
Versions: 1 2 3 4 5 6 7 8 9 10 11 12 13 14 15 16 17 18 19 20 21 22 23 24 25 26 27 28 29 30 31 32 33 34 35 36 37 38 39 40 41 42 43 44 45 46 47 48 49 50
934
AXUS43 KGID 191102
MISGRI

GID CWA HOURLY WEATHER ROUNDUP
NATIONAL WEATHER SERVICE HASTINGS NE
600 AM CDT SAT AUG 19 2017

NOTE: "FAIR" INDICATES FEW OR NO CLOUDS BELOW 12,000 FEET WITH NO
SIGNIFICANT WEATHER AND/OR OBSTRUCTIONS TO VISIBILITY.

...SOUTH CENTRAL NEBRASKA...

CITY           SKY/WX    TMP DP  RH WIND       PRES   REMARKS
GRAND ISLAND   CLEAR     59  59 100 CALM      30.00S
HASTINGS       CLEAR     64  58  80 CALM      30.01R
KEARNEY        CLEAR     61  58  90 CALM      30.01S
ORD            CLEAR     56  54  93 S3        29.98S
YORK           CLEAR     59  59 100 CALM      29.99S
AURORA         CLEAR     58  57  99 CALM      29.99F
LEXINGTON      CLEAR     60  58  94 SE3       30.00S
HOLDREGE       CLEAR     57  55  91 SE6       30.00F
HEBRON         CLEAR     61  60  97 CALM      29.99R

...NEBRASKA PANHANDLE...

CITY           SKY/WX    TMP DP  RH WIND       PRES   REMARKS
CHADRON        CLEAR     64  48  56 VRB3      29.92S
ALLIANCE       CLEAR     57  50  77 SE3       29.99S
SCOTTSBLUFF    CLEAR     60  51  72 CALM      29.98F
SIDNEY         CLEAR     64  55  72 S15       30.03F

...WESTERN AND NORTH CENTRAL NEBRASKA...

CITY           SKY/WX    TMP DP  RH WIND       PRES   REMARKS
VALENTINE      CLEAR     63  55  75 S8        29.96F
AINSWORTH      CLEAR     61  57  88 S7        29.98F
ONEILL         CLEAR     57  57 100 S3        29.98S
BROKEN BOW     CLEAR     56  54  93 CALM      29.99F
IMPERIAL       CLEAR     57  52  83 S6        30.02F
NORTH PLATTE   CLEAR     56  55  97 E3        30.01S
MCCOOK         CLEAR     56  54  93 CALM      30.01R

...EASTERN NEBRASKA...

CITY           SKY/WX    TMP DP  RH WIND       PRES   REMARKS
NORFOLK        CLEAR     54  54 100 CALM      29.97F
SO SIOUX CITY  CLEAR     57  56  96 NW6       29.96S
TEKAMAH        CLEAR     56  54  93 W5        29.96R
COLUMBUS       CLEAR     55  54  96 CALM      29.98S FOG
ALBION         CLEAR     56  55  97 CALM      29.99S
OMAHA EPPLEY   CLEAR     60  56  86 N3        29.96R
OFFUTT AFB     CLEAR     55  53  96 CALM      29.95R
MILLARD        CLEAR     62  60  94 CALM      29.96S
LINCOLN        CLEAR     60  58  92 N3        29.97S
NEBRASKA CITY  CLEAR     65  65 100 NW3       29.96S
BEATRICE       CLEAR     61  60  97 CALM      29.97S
FALLS CITY     CLEAR     63  61  93 NW5       29.94S

...NORTHERN KANSAS...

CITY           SKY/WX    TMP DP  RH WIND       PRES   REMARKS
GOODLAND       CLEAR     63  55  75 S10       30.04F
HILL CITY      CLEAR     59  57  93 CALM      29.99F
NORTON         SUNNY     55  52  88 W7        30.00R
PHILLIPSBURG   CLEAR     57  57 100 CALM      29.99S
SMITH CENTER   PTCLDY    57  55  94 CALM      29.99S
HAYS           CLEAR     60  58  92 W3        29.99S
RUSSELL        CLEAR     65  63  93 S8        29.96S
CONCORDIA      CLEAR     63  63 100 CALM      29.97R
SALINA         CLEAR     67  63  87 CALM      29.95R
TOPEKA         CLEAR     65  65 100 CALM      29.94R FOG



USA.gov is the U.S. government's official web portal to all federal, state and local government web resources and services.